| time (UTC) | temp C | wind direction | speed KPH | gust KPH | rain 1hr cm | rain 24hr cm | rain mn cm | humidity % | barometer mb |
| 20260506160518 | -2 | 205 | 14.5 | 17.7 | 0.00 | 0.08 | 0.00 | 92 | 1015.3 |
| 20260506155519 | -2 | 204 | 12.9 | 20.9 | 0.00 | 0.08 | 0.00 | 92 | 1015.3 |
| 20260506154539 | -2 | 196 | 14.5 | 19.3 | 0.00 | 0.08 | 0.00 | 92 | 1015.3 |
| 20260506153519 | -2 | 202 | 14.5 | 17.7 | 0.00 | 0.08 | 0.00 | 92 | 1015.2 |
| 20260506152519 | -2 | 195 | 12.9 | 17.7 | 0.00 | 0.08 | 0.00 | 92 | 1015.2 |
| 20260506151537 | -2 | 198 | 14.5 | 24.1 | 0.00 | 0.08 | 0.00 | 92 | 1015.1 |
| 20260506150521 | -3 | 196 | 12.9 | 14.5 | 0.00 | 0.08 | 0.00 | 92 | 1015.2 |
| 20260506145522 | -3 | 203 | 12.9 | 16.1 | 0.00 | 0.08 | 0.00 | 92 | 1015.3 |
| 20260506144521 | -3 | 196 | 11.3 | 14.5 | 0.00 | 0.08 | 0.00 | 92 | 1015.5 |
| 20260506143522 | -3 | 192 | 8.0 | 9.7 | 0.00 | 0.08 | 0.00 | 91 | 1015.7 |
| 20260506142522 | -3 | 144 | 8.0 | 8.0 | 0.00 | 0.08 | 0.00 | 91 | 1015.6 |
| 20260506094622 | -2 | 207 | 8.0 | 8.0 | 0.00 | 0.08 | 0.00 | 92 | 1013.5 |
| 20260506093603 | -2 | 207 | 9.7 | 11.3 | 0.00 | 0.08 | 0.00 | 92 | 1013.5 |
| 20260506092602 | -2 | 204 | 8.0 | 9.7 | 0.00 | 0.08 | 0.00 | 92 | 1013.5 |
| 20260506091603 | -2 | 215 | 6.4 | 8.0 | 0.00 | 0.08 | 0.00 | 92 | 1013.4 |
| 20260506090603 | -2 | 198 | 4.8 | 4.8 | 0.00 | 0.08 | 0.00 | 92 | 1013.5 |
| 20260506085604 | -2 | 188 | 3.2 | 3.2 | 0.00 | 0.08 | 0.00 | 92 | 1013.5 |
| 20260506084604 | -2 | 187 | 1.6 | 1.6 | 0.00 | 0.08 | 0.00 | 92 | 1013.5 |
| 20260506083624 | -2 | 206 | 3.2 | 4.8 | 0.00 | 0.08 | 0.00 | 92 | 1013.5 |
| 20260506082604 | -1 | 211 | 3.2 | 4.8 | 0.00 | 0.08 | 0.00 | 92 | 1013.4 |
| 20260506081604 | -1 | 221 | 4.8 | 6.4 | 0.00 | 0.08 | 0.00 | 92 | 1013.3 |
| 20260506080604 | -1 | 218 | 4.8 | 6.4 | 0.00 | 0.08 | 0.00 | 92 | 1013.6 |
| 20260506073522 | -1 | 255 | 3.2 | 4.8 | 0.00 | 0.08 | 0.00 | 92 | 1013.7 |
| 20260506072542 | -1 | 284 | 3.2 | 6.4 | 0.00 | 0.08 | 0.00 | 92 | 1013.9 |
| 20260506071522 | -1 | 283 | 3.2 | 4.8 | 0.00 | 0.08 | 0.00 | 92 | 1013.8 |
| 20260506070523 | -1 | 298 | 3.2 | 4.8 | 0.00 | 0.08 | 0.00 | 92 | 1013.9 |
| 20260506061520 | -1 | 347 | 6.4 | 9.7 | 0.00 | 0.08 | 0.00 | 92 | 1013.8 |
| 20260506060520 | -1 | 346 | 8.0 | 12.9 | 0.00 | 0.08 | 0.00 | 92 | 1013.6 |
| 20260506050521 | 0 | 348 | 8.0 | 12.9 | 0.00 | 0.08 | 0.08 | 92 | 1013.4 |
| 20260506044545 | 0 | 353 | 4.8 | 8.0 | 0.00 | 0.08 | 0.08 | 92 | 1013.3 |
| 20260506043522 | 0 | 6 | 6.4 | 12.9 | 0.00 | 0.08 | 0.08 | 91 | 1013.3 |
| 20260506042522 | 0 | 227 | 6.4 | 11.3 | 0.00 | 0.08 | 0.08 | 91 | 1013.2 |
| 20260506041519 | 0 | 203 | 11.3 | 17.7 | 0.00 | 0.08 | 0.08 | 91 | 1012.8 |
| 20260506040523 | 0 | 214 | 11.3 | 16.1 | 0.00 | 0.08 | 0.08 | 92 | 1012.9 |
| 20260506035518 | 0 | 201 | 14.5 | 19.3 | 0.00 | 0.08 | 0.08 | 91 | 1012.7 |
| 20260506034517 | 0 | 191 | 16.1 | 20.9 | 0.00 | 0.08 | 0.08 | 91 | 1012.7 |
| 20260506033517 | 1 | 203 | 12.9 | 16.1 | 0.00 | 0.08 | 0.08 | 90 | 1012.8 |
| 20260506032601 | 1 | 193 | 14.5 | 20.9 | 0.00 | 0.08 | 0.08 | 89 | 1012.6 |
| 20260506031521 | 0 | 204 | 11.3 | 16.1 | 0.00 | 0.08 | 0.08 | 90 | 1012.7 |
| 20260506030537 | 0 | 191 | 16.1 | 22.5 | 0.00 | 0.08 | 0.08 | 90 | 1012.7 |
| 20260506025517 | 0 | 213 | 16.1 | 24.1 | 0.00 | 0.10 | 0.08 | 90 | 1011.9 |
| 20260506024518 | 0 | 210 | 16.1 | 22.5 | 0.00 | 0.10 | 0.08 | 90 | 1011.7 |
| 20260506023518 | 0 | 196 | 19.3 | 29.0 | 0.00 | 0.10 | 0.08 | 91 | 1011.4 |
| 20260506022518 | 0 | 189 | 19.3 | 29.0 | 0.00 | 0.10 | 0.08 | 91 | 1011.2 |
| 20260506021518 | 0 | 188 | 19.3 | 25.7 | 0.00 | 0.10 | 0.08 | 91 | 1011.5 |
| 20260506020519 | 0 | 183 | 20.9 | 25.7 | 0.00 | 0.10 | 0.08 | 91 | 1011.7 |
| 20260506015519 | 0 | 179 | 19.3 | 25.7 | 0.00 | 0.10 | 0.08 | 91 | 1011.9 |
| 20260506014519 | 0 | 185 | 17.7 | 25.7 | 0.00 | 0.10 | 0.08 | 90 | 1011.5 |
| 20260506013519 | 1 | 209 | 12.9 | 19.3 | 0.00 | 0.10 | 0.08 | 90 | 1011.6 |
| 20260506012519 | 1 | 206 | 14.5 | 22.5 | 0.00 | 0.10 | 0.08 | 90 | 1011.5 |
| 20260506011540 | 1 | 211 | 14.5 | 20.9 | 0.00 | 0.10 | 0.08 | 90 | 1011.1 |
| 20260506010520 | 1 | 206 | 17.7 | 24.1 | 0.00 | 0.10 | 0.08 | 91 | 1010.8 |
| 20260506005540 | 1 | 203 | 17.7 | 24.1 | 0.00 | 0.10 | 0.08 | 90 | 1010.9 |
| 20260506004517 | 1 | 191 | 12.9 | 17.7 | 0.00 | 0.10 | 0.08 | 90 | 1011.0 |
| 20260506003517 | 1 | 191 | 12.9 | 19.3 | 0.00 | 0.10 | 0.08 | 91 | 1011.1 |
| 20260506002520 | 1 | 179 | 11.3 | 16.1 | 0.00 | 0.10 | 0.08 | 91 | 1011.1 |
| 20260506001541 | 1 | 192 | 8.0 | 11.3 | 0.00 | 0.10 | 0.08 | 91 | 1011.3 |
| 20260506000530 | 1 | 232 | 3.2 | 4.8 | 0.00 | 0.10 | 0.08 | 90 | 1011.5 |
| 20260505235530 | 1 | 208 | 0.0 | 1.6 | 0.00 | 0.10 | 0.08 | 90 | 1011.4 |
| 20260505234530 | 1 | 13 | 0.0 | 1.6 | 0.05 | 0.10 | 0.08 | 90 | 1011.3 |
| 20260505233530 | 1 | 360 | 3.2 | 3.2 | 0.05 | 0.10 | 0.08 | 90 | 1011.4 |
| 20260505232531 | 1 | 352 | 3.2 | 4.8 | 0.05 | 0.10 | 0.08 | 91 | 1011.4 |
| 20260505231551 | 0 | 17 | 3.2 | 4.8 | 0.05 | 0.10 | 0.08 | 92 | 1011.3 |
| 20260505230522 | 0 | 358 | 6.4 | 8.0 | 0.05 | 0.10 | 0.08 | 92 | 1011.4 |
| 20260505225522 | 0 | 350 | 9.7 | 14.5 | 0.05 | 0.10 | 0.08 | 91 | 1011.3 |
| 20260505224543 | 0 | 337 | 8.0 | 11.3 | 0.03 | 0.05 | 0.05 | 91 | 1011.3 |
| 20260505223532 | 0 | 324 | 4.8 | 6.4 | 0.03 | 0.05 | 0.05 | 90 | 1011.0 |
| 20260505222523 | 1 | 355 | 6.4 | 11.3 | 0.03 | 0.05 | 0.05 | 90 | 1010.7 |
| 20260505221532 | 1 | 354 | 4.8 | 8.0 | 0.03 | 0.05 | 0.03 | 90 | 1010.9 |
| 20260505220517 | 1 | 344 | 8.0 | 16.1 | 0.03 | 0.03 | 0.03 | 89 | 1011.0 |
| 20260505215517 | 2 | 324 | 6.4 | 11.3 | 0.03 | 0.03 | 0.03 | 89 | 1011.1 |
| 20260505214518 | 2 | 314 | 8.0 | 11.3 | 0.00 | 0.03 | 0.03 | 88 | 1011.1 |
| 20260505213517 | 2 | 328 | 11.3 | 16.1 | 0.03 | 0.03 | 0.03 | 87 | 1011.0 |
| 20260505212541 | 2 | 328 | 8.0 | 16.1 | 0.00 | 0.03 | 0.00 | 86 | 1011.2 |
| 20260505211518 | 3 | 352 | 14.5 | 24.1 | 0.00 | 0.03 | 0.00 | 86 | 1011.2 |
| 20260505210518 | 3 | 347 | 12.9 | 24.1 | 0.00 | 0.03 | 0.00 | 85 | 1011.2 |
| 20260505205518 | 3 | 329 | 11.3 | 19.3 | 0.00 | 0.03 | 0.00 | 83 | 1011.3 |
| 20260505204518 | 5 | 346 | 16.1 | 29.0 | 0.00 | 0.03 | 0.00 | 81 | 1011.2 |
| 20260505203517 | 6 | 344 | 12.9 | 24.1 | 0.00 | 0.00 | 0.00 | 73 | 1011.1 |
| 20260505202519 | 8 | 243 | 16.1 | 24.1 | 0.00 | 0.00 | 0.00 | 55 | 1010.9 |
| 20260505201520 | 10 | 204 | 20.9 | 32.2 | 0.00 | 0.00 | 0.00 | 50 | 1010.4 |
| 20260505200517 | 10 | 195 | 29.0 | 43.5 | 0.00 | 0.00 | 0.00 | 49 | 1009.9 |
| 20260505195518 | 10 | 185 | 32.2 | 41.8 | 0.00 | 0.00 | 0.00 | 48 | 1009.8 |
| 20260505194517 | 10 | 188 | 33.8 | 48.3 | 0.00 | 0.00 | 0.00 | 48 | 1009.8 |
| 20260505193537 | 10 | 179 | 24.1 | 37.0 | 0.00 | 0.00 | 0.00 | 49 | 1010.2 |
| 20260505192518 | 8 | 179 | 24.1 | 38.6 | 0.00 | 0.00 | 0.00 | 52 | 1010.5 |
| 20260505191519 | 8 | 187 | 22.5 | 32.2 | 0.00 | 0.00 | 0.00 | 53 | 1010.7 |
| 20260505190518 | 9 | 193 | 20.9 | 35.4 | 0.00 | 0.00 | 0.00 | 52 | 1010.8 |
| 20260505185518 | 9 | 206 | 12.9 | 20.9 | 0.00 | 0.00 | 0.00 | 50 | 1010.9 |
| 20260505184518 | 8 | 211 | 12.9 | 25.7 | 0.00 | 0.00 | 0.00 | 50 | 1011.0 |
| 20260505183518 | 8 | 194 | 19.3 | 33.8 | 0.00 | 0.00 | 0.00 | 53 | 1011.1 |
| 20260505182518 | 8 | 185 | 16.1 | 27.4 | 0.00 | 0.00 | 0.00 | 53 | 1011.2 |
| 20260505181519 | 8 | 198 | 14.5 | 22.5 | 0.00 | 0.00 | 0.00 | 52 | 1011.3 |
| 20260505180518 | 9 | 182 | 11.3 | 20.9 | 0.00 | 0.00 | 0.00 | 50 | 1011.4 |
| 20260505175519 | 8 | 170 | 14.5 | 22.5 | 0.00 | 0.00 | 0.00 | 54 | 1011.5 |
| 20260505174519 | 8 | 179 | 11.3 | 27.4 | 0.00 | 0.00 | 0.00 | 53 | 1011.5 |
| 20260505173521 | 8 | 221 | 9.7 | 14.5 | 0.00 | 0.00 | 0.00 | 55 | 1011.9 |
| 20260505172517 | 7 | 219 | 6.4 | 12.9 | 0.00 | 0.00 | 0.00 | 59 | 1012.2 |
| 20260505171519 | 7 | 208 | 8.0 | 16.1 | 0.00 | 0.00 | 0.00 | 61 | 1012.3 |
| 20260505170520 | 7 | 206 | 11.3 | 17.7 | 0.00 | 0.00 | 0.00 | 62 | 1012.0 |
| 20260505165540 | 6 | 173 | 12.9 | 20.9 | 0.00 | 0.00 | 0.00 | 64 | 1012.0 |
| 20260505164517 | 7 | 192 | 11.3 | 20.9 | 0.00 | 0.00 | 0.00 | 64 | 1012.2 |
| 20260505163517 | 6 | 205 | 11.3 | 17.7 | 0.00 | 0.00 | 0.00 | 64 | 1012.3 |
| 20260505162517 | 6 | 199 | 16.1 | 24.1 | 0.00 | 0.00 | 0.00 | 68 | 1012.4 |
| 20260505161521 | 6 | 207 | 14.5 | 20.9 | 0.00 | 0.00 | 0.00 | 69 | 1012.6 |